Time,TemperatureF,DewpointF,PressureIn,WindDirection,WindDirectionDegrees,WindSpeedMPH,WindSpeedGustMPH,Humidity,HourlyPrecipIn,Conditions,Clouds,dailyrainin,SoftwareType,DateUTC
2013-05-25 00:00:00,41.3,39.4,30.07,North,10,4.0,6.0,93,0.10,,,0.52,Wunderground v.1.15,2013-05-25 04:00:00,
2013-05-25 00:01:00,41.3,39.4,30.08,North,355,4.0,6.0,93,0.09,,,0.52,Wunderground v.1.15,2013-05-25 04:01:00,
2013-05-25 00:02:00,41.3,39.4,30.08,North,5,5.0,6.0,93,0.08,,,0.52,Wunderground v.1.15,2013-05-25 04:02:00,
2013-05-25 00:03:00,41.3,39.4,30.08,WNW,298,4.0,6.0,93,0.07,,,0.52,Wunderground v.1.15,2013-05-25 04:03:00,
2013-05-25 00:05:00,41.3,39.4,30.08,NNW,345,5.0,6.0,93,0.06,,,0.53,Wunderground v.1.15,2013-05-25 04:05:00,
2013-05-25 00:11:00,41.4,39.5,30.07,NNE,26,4.0,6.0,93,0.06,,,0.53,Wunderground v.1.15,2013-05-25 04:11:00,
2013-05-25 00:15:00,41.3,39.4,30.06,North,5,5.0,7.0,93,0.06,,,0.53,Wunderground v.1.15,2013-05-25 04:15:00,
2013-05-25 00:21:00,41.3,39.4,30.06,NW,323,6.0,6.0,93,0.05,,,0.54,Wunderground v.1.15,2013-05-25 04:21:00,
2013-05-25 00:27:00,41.3,39.4,30.06,NNW,331,5.0,7.0,93,0.08,,,0.55,Wunderground v.1.15,2013-05-25 04:27:00,
2013-05-25 00:33:00,41.3,39.4,30.05,NNE,12,6.0,13.0,93,0.06,,,0.55,Wunderground v.1.15,2013-05-25 04:33:00,
2013-05-25 00:38:00,41.3,39.4,30.04,NNE,31,7.0,13.0,93,0.05,,,0.56,Wunderground v.1.15,2013-05-25 04:38:00,
2013-05-25 00:44:00,41.4,39.5,30.00,NNE,28,9.0,14.0,93,0.05,,,0.56,Wunderground v.1.15,2013-05-25 04:44:00,
2013-05-25 00:50:00,41.3,39.4,30.00,NNW,333,10.0,10.0,93,0.04,,,0.56,Wunderground v.1.15,2013-05-25 04:50:00,
2013-05-25 00:56:00,41.4,39.5,30.02,NW,308,7.0,10.0,93,0.00,,,0.56,Wunderground v.1.15,2013-05-25 04:56:00,
2013-05-25 01:01:00,41.4,39.5,30.03,WNW,282,6.0,21.0,93,0.00,,,0.56,Wunderground v.1.15,2013-05-25 05:01:00,
2013-05-25 01:07:00,41.4,39.5,30.03,WNW,293,6.0,21.0,93,0.00,,,0.57,Wunderground v.1.15,2013-05-25 05:07:00,
2013-05-25 01:13:00,41.4,39.8,30.04,NNW,346,5.0,21.0,94,0.00,,,0.57,Wunderground v.1.15,2013-05-25 05:13:00,
2013-05-25 01:19:00,41.3,39.7,30.04,WNW,300,5.0,21.0,94,0.06,,,0.58,Wunderground v.1.15,2013-05-25 05:19:00,
2013-05-25 01:24:00,41.4,39.8,30.04,WNW,290,5.0,21.0,94,0.07,,,0.59,Wunderground v.1.15,2013-05-25 05:24:00,
2013-05-25 01:30:00,41.3,39.7,30.04,North,351,6.0,21.0,94,0.07,,,0.59,Wunderground v.1.15,2013-05-25 05:30:00,
2013-05-25 01:36:00,41.4,39.8,30.04,NNW,330,5.0,21.0,94,0.11,,,0.60,Wunderground v.1.15,2013-05-25 05:36:00,
2013-05-25 01:42:00,41.4,39.8,30.04,WNW,303,4.0,21.0,94,0.13,,,0.62,Wunderground v.1.15,2013-05-25 05:42:00,
2013-05-25 01:47:00,41.4,39.8,30.04,North,355,5.0,21.0,94,0.15,,,0.63,Wunderground v.1.15,2013-05-25 05:47:00,
2013-05-25 01:53:00,41.4,39.8,30.03,NNE,13,6.0,21.0,94,0.13,,,0.64,Wunderground v.1.15,2013-05-25 05:53:00,
2013-05-25 01:59:00,41.4,39.8,30.03,NNE,15,5.0,21.0,94,0.12,,,0.66,Wunderground v.1.15,2013-05-25 05:59:00,
2013-05-25 02:05:00,41.3,39.7,30.03,NNW,327,5.0,21.0,94,0.09,,,0.66,Wunderground v.1.15,2013-05-25 06:05:00,
2013-05-25 02:10:00,41.4,39.8,30.03,North,5,6.0,6.0,94,0.08,,,0.67,Wunderground v.1.15,2013-05-25 06:10:00,
2013-05-25 02:16:00,41.5,39.9,30.03,NW,311,6.0,21.0,94,0.06,,,0.67,Wunderground v.1.15,2013-05-25 06:16:00,
2013-05-25 02:22:00,41.5,39.9,30.02,North,349,4.0,21.0,94,0.04,,,0.68,Wunderground v.1.15,2013-05-25 06:22:00,
2013-05-25 02:28:00,41.6,40.0,30.02,North,5,5.0,21.0,94,0.04,,,0.68,Wunderground v.1.15,2013-05-25 06:28:00,
2013-05-25 02:33:00,41.7,40.1,30.02,North,5,5.0,21.0,94,0.04,,,0.68,Wunderground v.1.15,2013-05-25 06:33:00,
2013-05-25 02:39:00,41.8,40.2,30.02,North,11,4.0,21.0,94,0.00,,,0.68,Wunderground v.1.15,2013-05-25 06:39:00,
2013-05-25 02:45:00,41.8,40.2,30.02,NNE,16,6.0,21.0,94,0.00,,,0.69,Wunderground v.1.15,2013-05-25 06:45:00,
2013-05-25 02:51:00,41.8,39.9,30.02,NNW,340,7.0,21.0,93,0.00,,,0.69,Wunderground v.1.15,2013-05-25 06:51:00,
2013-05-25 02:56:00,41.8,40.2,30.02,WNW,286,5.0,21.0,94,0.00,,,0.69,Wunderground v.1.15,2013-05-25 06:56:00,
2013-05-25 03:02:00,41.8,40.2,30.02,NNW,327,4.0,21.0,94,0.00,,,0.70,Wunderground v.1.15,2013-05-25 07:02:00,
2013-05-25 03:08:00,41.8,40.2,30.02,NW,311,4.0,21.0,94,0.00,,,0.70,Wunderground v.1.15,2013-05-25 07:08:00,
2013-05-25 03:13:00,41.9,40.3,30.01,NNW,344,4.0,21.0,94,0.00,,,0.70,Wunderground v.1.15,2013-05-25 07:13:00,
2013-05-25 03:18:00,41.9,40.3,30.02,NNW,339,5.0,21.0,94,0.00,,,0.70,Wunderground v.1.15,2013-05-25 07:18:00,
2013-05-25 03:24:00,41.9,40.3,30.02,NNW,339,5.0,21.0,94,0.00,,,0.70,Wunderground v.1.15,2013-05-25 07:24:00,
2013-05-25 03:30:00,42.0,40.4,30.02,NNW,344,6.0,21.0,94,0.00,,,0.70,Wunderground v.1.15,2013-05-25 07:30:00,
2013-05-25 03:35:00,42.0,40.4,30.02,NNW,344,6.0,21.0,94,0.00,,,0.71,Wunderground v.1.15,2013-05-25 07:35:00,
2013-05-25 03:41:00,42.0,40.4,30.01,North,9,5.0,8.0,94,0.00,,,0.71,Wunderground v.1.15,2013-05-25 07:41:00,
2013-05-25 03:47:00,42.0,40.4,30.01,NNE,24,5.0,21.0,94,0.05,,,0.72,Wunderground v.1.15,2013-05-25 07:47:00,
2013-05-25 03:53:00,42.0,40.4,30.01,NW,319,7.0,21.0,94,0.05,,,0.72,Wunderground v.1.15,2013-05-25 07:53:00,
2013-05-25 03:59:00,42.0,40.4,30.01,NNE,17,7.0,21.0,94,0.05,,,0.72,Wunderground v.1.15,2013-05-25 07:59:00,
2013-05-25 04:04:00,42.0,40.4,30.01,NNW,346,7.0,21.0,94,0.04,,,0.73,Wunderground v.1.15,2013-05-25 08:04:00,
2013-05-25 04:10:00,42.1,40.5,30.01,NE,38,6.0,21.0,94,0.04,,,0.73,Wunderground v.1.15,2013-05-25 08:10:00,
2013-05-25 04:16:00,42.1,40.5,30.01,NNE,12,6.0,21.0,94,0.06,,,0.74,Wunderground v.1.15,2013-05-25 08:16:00,
2013-05-25 04:22:00,42.0,40.4,30.01,NW,319,6.0,21.0,94,0.06,,,0.74,Wunderground v.1.15,2013-05-25 08:22:00,
2013-05-25 04:28:00,42.0,40.4,30.01,North,5,7.0,21.0,94,0.04,,,0.74,Wunderground v.1.15,2013-05-25 08:28:00,
2013-05-25 04:34:00,42.0,40.4,30.01,North,5,7.0,21.0,94,0.04,,,0.75,Wunderground v.1.15,2013-05-25 08:34:00,
2013-05-25 04:40:00,42.0,40.7,30.01,North,360,6.0,21.0,95,0.08,,,0.76,Wunderground v.1.15,2013-05-25 08:40:00,
2013-05-25 04:46:00,42.0,40.7,30.01,NNW,346,7.0,21.0,95,0.06,,,0.76,Wunderground v.1.15,2013-05-25 08:46:00,
2013-05-25 04:51:00,42.0,40.4,30.01,North,350,8.0,21.0,94,0.06,,,0.77,Wunderground v.1.15,2013-05-25 08:51:00,
2013-05-25 04:57:00,42.0,40.4,30.01,North,355,6.0,21.0,94,0.05,,,0.77,Wunderground v.1.15,2013-05-25 08:57:00,
2013-05-25 05:03:00,42.0,40.4,30.01,North,11,5.0,21.0,94,0.04,,,0.78,Wunderground v.1.15,2013-05-25 09:03:00,
2013-05-25 05:09:00,42.1,40.5,30.01,North,5,7.0,21.0,94,0.04,,,0.78,Wunderground v.1.15,2013-05-25 09:09:00,
2013-05-25 05:15:00,42.1,40.5,30.01,NNW,329,7.0,21.0,94,0.04,,,0.78,Wunderground v.1.15,2013-05-25 09:15:00,
2013-05-25 05:21:00,42.2,40.6,30.01,NNE,18,7.0,21.0,94,0.00,,,0.78,Wunderground v.1.15,2013-05-25 09:21:00,
2013-05-25 05:27:00,42.2,40.6,30.02,NNE,31,6.0,21.0,94,0.00,,,0.79,Wunderground v.1.15,2013-05-25 09:27:00,
2013-05-25 05:32:00,42.2,40.6,30.02,NNE,19,7.0,21.0,94,0.00,,,0.79,Wunderground v.1.15,2013-05-25 09:32:00,
2013-05-25 05:38:00,42.3,40.7,30.02,NNW,340,7.0,21.0,94,0.00,,,0.79,Wunderground v.1.15,2013-05-25 09:38:00,
2013-05-25 05:44:00,42.3,40.7,30.02,NNW,329,6.0,21.0,94,0.00,,,0.79,Wunderground v.1.15,2013-05-25 09:44:00,
2013-05-25 05:50:00,42.3,40.4,30.02,NNE,13,7.0,21.0,93,0.00,,,0.80,Wunderground v.1.15,2013-05-25 09:50:00,
2013-05-25 05:55:00,42.4,40.5,30.02,WNW,300,7.0,21.0,93,0.00,,,0.80,Wunderground v.1.15,2013-05-25 09:55:00,
2013-05-25 06:01:00,42.3,40.4,30.02,NNW,331,7.0,21.0,93,0.08,,,0.81,Wunderground v.1.15,2013-05-25 10:01:00,
2013-05-25 06:07:00,42.4,40.5,30.02,NNE,23,8.0,21.0,93,0.11,,,0.82,Wunderground v.1.15,2013-05-25 10:07:00,
2013-05-25 06:13:00,42.3,40.4,30.02,NE,38,7.0,21.0,93,0.05,,,0.82,Wunderground v.1.15,2013-05-25 10:13:00,
2013-05-25 06:19:00,42.2,40.3,30.02,North,5,7.0,21.0,93,0.04,,,0.83,Wunderground v.1.15,2013-05-25 10:19:00,
2013-05-25 06:25:00,42.2,40.3,30.02,NNE,20,7.0,21.0,93,0.04,,,0.83,Wunderground v.1.15,2013-05-25 10:25:00,
2013-05-25 06:31:00,42.2,40.3,30.02,North,5,8.0,8.0,93,0.05,,,0.84,Wunderground v.1.15,2013-05-25 10:31:00,
2013-05-25 06:36:00,42.2,40.3,30.03,North,9,7.0,21.0,93,0.05,,,0.84,Wunderground v.1.15,2013-05-25 10:36:00,
2013-05-25 06:42:00,42.1,40.5,30.03,NNE,13,7.0,13.0,94,0.05,,,0.85,Wunderground v.1.15,2013-05-25 10:42:00,
2013-05-25 06:48:00,42.1,40.5,30.03,North,11,7.0,21.0,94,0.05,,,0.85,Wunderground v.1.15,2013-05-25 10:48:00,
2013-05-25 06:54:00,42.1,40.2,30.03,North,11,6.0,21.0,93,0.04,,,0.85,Wunderground v.1.15,2013-05-25 10:54:00,
2013-05-25 06:59:00,42.1,40.5,30.03,North,355,7.0,21.0,94,0.04,,,0.86,Wunderground v.1.15,2013-05-25 10:59:00,
2013-05-25 07:05:00,42.0,40.1,30.03,NNW,334,8.0,21.0,93,0.04,,,0.86,Wunderground v.1.15,2013-05-25 11:05:00,
2013-05-25 07:11:00,42.0,40.1,30.03,NNE,22,8.0,21.0,93,0.04,,,0.87,Wunderground v.1.15,2013-05-25 11:11:00,
2013-05-25 07:17:00,42.0,40.1,30.03,North,9,9.0,21.0,93,0.04,,,0.87,Wunderground v.1.15,2013-05-25 11:17:00,
2013-05-25 07:23:00,42.0,40.1,30.03,NNE,15,8.0,21.0,93,0.04,,,0.87,Wunderground v.1.15,2013-05-25 11:23:00,
2013-05-25 07:29:00,41.9,40.0,30.03,NNE,25,8.0,21.0,93,0.00,,,0.87,Wunderground v.1.15,2013-05-25 11:29:00,
2013-05-25 07:34:00,42.0,40.4,30.03,North,5,8.0,21.0,94,0.00,,,0.87,Wunderground v.1.15,2013-05-25 11:34:00,
2013-05-25 07:39:00,42.0,40.4,30.02,NW,325,8.0,21.0,94,0.00,,,0.88,Wunderground v.1.15,2013-05-25 11:39:00,
2013-05-25 07:45:00,42.0,40.4,30.02,NNW,330,6.0,21.0,94,0.00,,,0.88,Wunderground v.1.15,2013-05-25 11:45:00,
2013-05-25 07:51:00,42.0,40.4,30.03,North,351,6.0,21.0,94,0.00,,,0.88,Wunderground v.1.15,2013-05-25 11:51:00,
2013-05-25 07:57:00,42.0,40.4,30.03,NE,38,7.0,21.0,94,0.00,,,0.88,Wunderground v.1.15,2013-05-25 11:57:00,
2013-05-25 08:02:00,42.0,40.4,30.03,NNW,336,7.0,21.0,94,0.00,,,0.88,Wunderground v.1.15,2013-05-25 12:02:00,
2013-05-25 08:08:00,42.1,40.5,30.03,North,351,8.0,21.0,94,0.00,,,0.88,Wunderground v.1.15,2013-05-25 12:08:00,
2013-05-25 08:14:00,42.1,40.2,30.03,NE,40,8.0,21.0,93,0.00,,,0.88,Wunderground v.1.15,2013-05-25 12:14:00,
2013-05-25 08:20:00,42.2,40.6,30.02,NNE,19,7.0,21.0,94,0.00,,,0.88,Wunderground v.1.15,2013-05-25 12:20:00,
2013-05-25 08:25:00,42.2,40.6,30.02,NNE,23,7.0,21.0,94,0.00,,,0.89,Wunderground v.1.15,2013-05-25 12:25:00,
2013-05-25 08:31:00,42.2,40.3,30.02,North,9,8.0,21.0,93,0.00,,,0.89,Wunderground v.1.15,2013-05-25 12:31:00,
2013-05-25 08:37:00,42.3,40.4,30.02,NNE,24,8.0,21.0,93,0.00,,,0.89,Wunderground v.1.15,2013-05-25 12:37:00,
2013-05-25 08:42:00,42.3,40.4,30.02,NE,35,9.0,21.0,93,0.00,,,0.89,Wunderground v.1.15,2013-05-25 12:42:00,
2013-05-25 08:48:00,42.4,40.5,30.02,NNW,332,9.0,21.0,93,0.00,,,0.89,Wunderground v.1.15,2013-05-25 12:48:00,
2013-05-25 08:54:00,42.4,40.2,30.02,NNW,339,8.0,21.0,92,0.00,,,0.89,Wunderground v.1.15,2013-05-25 12:54:00,
2013-05-25 09:00:00,42.4,40.2,30.02,NNE,28,9.0,21.0,92,0.00,,,0.89,Wunderground v.1.15,2013-05-25 13:00:00,
2013-05-25 09:05:00,42.3,40.4,30.02,NNE,18,9.0,21.0,93,0.00,,,0.89,Wunderground v.1.15,2013-05-25 13:05:00,
2013-05-25 09:11:00,42.4,40.5,30.02,NE,54,8.0,21.0,93,0.00,,,0.89,Wunderground v.1.15,2013-05-25 13:11:00,
2013-05-25 09:17:00,42.3,40.4,30.02,North,5,9.0,21.0,93,0.00,,,0.89,Wunderground v.1.15,2013-05-25 13:17:00,
2013-05-25 09:23:00,42.3,40.4,30.02,NW,323,10.0,21.0,93,0.00,,,0.90,Wunderground v.1.15,2013-05-25 13:23:00,
2013-05-25 09:28:00,42.4,40.5,30.01,NW,317,9.0,21.0,93,0.00,,,0.90,Wunderground v.1.15,2013-05-25 13:28:00,
2013-05-25 09:34:00,42.4,40.5,30.01,North,360,8.0,21.0,93,0.00,,,0.90,Wunderground v.1.15,2013-05-25 13:34:00,
2013-05-25 09:40:00,42.4,40.2,30.02,North,9,8.0,21.0,92,0.00,,,0.91,Wunderground v.1.15,2013-05-25 13:40:00,
2013-05-25 09:46:00,42.3,40.1,30.01,NNE,15,10.0,21.0,92,0.08,,,0.91,Wunderground v.1.15,2013-05-25 13:46:00,
2013-05-25 09:52:00,42.3,40.1,30.02,NNW,329,10.0,21.0,92,0.08,,,0.92,Wunderground v.1.15,2013-05-25 13:52:00,
2013-05-25 09:58:00,42.3,40.1,30.02,NNW,344,10.0,21.0,92,0.08,,,0.93,Wunderground v.1.15,2013-05-25 13:58:00,
2013-05-25 10:04:00,42.3,40.4,30.01,NW,317,9.0,21.0,93,0.07,,,0.94,Wunderground v.1.15,2013-05-25 14:04:00,
2013-05-25 10:09:00,42.3,40.4,30.02,NNE,28,9.0,21.0,93,0.07,,,0.94,Wunderground v.1.15,2013-05-25 14:09:00,
2013-05-25 10:15:00,42.3,40.4,30.02,North,5,10.0,21.0,93,0.07,,,0.95,Wunderground v.1.15,2013-05-25 14:15:00,
2013-05-25 10:21:00,42.4,40.5,30.01,NNE,22,8.0,21.0,93,0.06,,,0.00,Wunderground v.1.15,2013-05-25 14:21:00,
2013-05-25 10:27:00,42.5,40.6,30.01,North,355,7.0,21.0,93,0.06,,,0.01,Wunderground v.1.15,2013-05-25 14:27:00,
2013-05-25 10:32:00,42.5,40.6,30.01,NNE,32,7.0,21.0,93,0.06,,,0.01,Wunderground v.1.15,2013-05-25 14:32:00,
2013-05-25 10:38:00,42.5,40.6,30.02,NNE,15,7.0,21.0,93,0.05,,,0.02,Wunderground v.1.15,2013-05-25 14:38:00,
2013-05-25 10:44:00,42.4,40.5,30.02,NE,47,8.0,21.0,93,0.05,,,0.02,Wunderground v.1.15,2013-05-25 14:44:00,
2013-05-25 10:50:00,42.4,40.5,30.02,NNE,27,10.0,10.0,93,0.06,,,0.03,Wunderground v.1.15,2013-05-25 14:50:00,
2013-05-25 10:56:00,42.4,40.5,30.02,NNW,338,7.0,21.0,93,0.07,,,0.04,Wunderground v.1.15,2013-05-25 14:56:00,
2013-05-25 11:02:00,42.4,40.5,30.02,NNE,22,8.0,21.0,93,0.10,,,0.05,Wunderground v.1.15,2013-05-25 15:02:00,
2013-05-25 11:08:00,42.4,40.5,30.02,North,10,10.0,21.0,93,0.22,,,0.07,Wunderground v.1.15,2013-05-25 15:08:00,
2013-05-25 11:13:00,42.3,40.4,30.03,NNE,16,9.0,21.0,93,0.17,,,0.08,Wunderground v.1.15,2013-05-25 15:13:00,
2013-05-25 11:19:00,42.3,40.4,30.02,WNW,296,8.0,21.0,93,0.13,,,0.09,Wunderground v.1.15,2013-05-25 15:19:00,
2013-05-25 11:25:00,42.2,40.3,30.02,North,10,8.0,21.0,93,0.14,,,0.10,Wunderground v.1.15,2013-05-25 15:25:00,
2013-05-25 11:30:00,42.2,40.3,30.02,NNW,344,10.0,21.0,93,0.13,,,0.12,Wunderground v.1.15,2013-05-25 15:30:00,
2013-05-25 11:36:00,42.2,40.3,30.02,North,355,12.0,21.0,93,0.15,,,0.13,Wunderground v.1.15,2013-05-25 15:36:00,
2013-05-25 11:41:00,42.3,40.4,30.02,NNE,22,11.0,21.0,93,0.11,,,0.14,Wunderground v.1.15,2013-05-25 15:41:00,
2013-05-25 11:47:00,42.4,40.5,30.02,North,5,10.0,21.0,93,0.13,,,0.15,Wunderground v.1.15,2013-05-25 15:47:00,
2013-05-25 11:53:00,42.4,40.5,30.02,NNE,15,12.0,21.0,93,0.09,,,0.16,Wunderground v.1.15,2013-05-25 15:53:00,
2013-05-25 11:58:00,42.5,40.6,30.02,NNW,327,10.0,21.0,93,0.10,,,0.17,Wunderground v.1.15,2013-05-25 15:58:00,
2013-05-25 12:04:00,42.5,40.6,30.02,NNE,19,10.0,24.0,93,0.08,,,0.17,Wunderground v.1.15,2013-05-25 16:04:00,
2013-05-25 12:10:00,42.5,40.3,30.02,NNW,329,12.0,12.0,92,0.07,,,0.18,Wunderground v.1.15,2013-05-25 16:10:00,
2013-05-25 12:16:00,42.5,40.3,30.02,North,5,12.0,21.0,92,0.06,,,0.19,Wunderground v.1.15,2013-05-25 16:16:00,
2013-05-25 12:21:00,42.6,40.7,30.02,NNE,29,11.0,21.0,93,0.09,,,0.19,Wunderground v.1.15,2013-05-25 16:21:00,
2013-05-25 12:27:00,42.5,40.6,30.02,North,360,10.0,21.0,93,0.14,,,0.21,Wunderground v.1.15,2013-05-25 16:27:00,
2013-05-25 12:33:00,42.4,40.5,30.02,NW,311,11.0,21.0,93,0.19,,,0.23,Wunderground v.1.15,2013-05-25 16:33:00,
2013-05-25 12:38:00,42.4,40.2,30.02,WNW,282,12.0,21.0,92,0.17,,,0.24,Wunderground v.1.15,2013-05-25 16:38:00,
2013-05-25 12:43:00,42.4,40.2,30.01,NW,317,14.0,21.0,92,0.15,,,0.25,Wunderground v.1.15,2013-05-25 16:43:00,
2013-05-25 12:49:00,42.4,40.2,30.02,North,355,13.0,22.0,92,0.11,,,0.26,Wunderground v.1.15,2013-05-25 16:49:00,
2013-05-25 12:54:00,42.5,40.3,30.01,North,351,12.0,21.0,92,0.06,,,0.27,Wunderground v.1.15,2013-05-25 16:54:00,
2013-05-25 13:00:00,42.7,40.5,30.02,North,355,12.0,12.0,92,0.06,,,0.27,Wunderground v.1.15,2013-05-25 17:00:00,
2013-05-25 13:06:00,42.9,41.0,30.01,NW,304,11.0,21.0,93,0.06,,,0.28,Wunderground v.1.15,2013-05-25 17:06:00,
2013-05-25 13:11:00,42.9,41.0,30.01,NNW,347,10.0,21.0,93,0.06,,,0.28,Wunderground v.1.15,2013-05-25 17:11:00,
2013-05-25 13:17:00,43.1,41.2,30.02,NNE,26,10.0,21.0,93,0.06,,,0.29,Wunderground v.1.15,2013-05-25 17:17:00,
2013-05-25 13:23:00,43.1,41.2,30.02,NNE,13,11.0,21.0,93,0.06,,,0.29,Wunderground v.1.15,2013-05-25 17:23:00,
2013-05-25 13:29:00,43.2,41.3,30.01,NW,315,12.0,21.0,93,0.05,,,0.30,Wunderground v.1.15,2013-05-25 17:29:00,
2013-05-25 13:35:00,43.3,41.4,30.01,West,270,10.0,21.0,93,0.05,,,0.30,Wunderground v.1.15,2013-05-25 17:35:00,
2013-05-25 13:41:00,43.3,40.8,30.02,NW,308,13.0,21.0,91,0.04,,,0.30,Wunderground v.1.15,2013-05-25 17:41:00,
2013-05-25 13:47:00,43.3,41.1,30.02,NE,43,11.0,21.0,92,0.04,,,0.31,Wunderground v.1.15,2013-05-25 17:47:00,
2013-05-25 13:52:00,43.2,40.8,30.02,North,5,10.0,27.0,91,0.06,,,0.32,Wunderground v.1.15,2013-05-25 17:52:00,
2013-05-25 13:58:00,43.2,41.0,30.02,NNW,333,13.0,27.0,92,0.06,,,0.32,Wunderground v.1.15,2013-05-25 17:58:00,
2013-05-25 14:04:00,43.2,41.0,30.03,North,355,12.0,21.0,92,0.05,,,0.32,Wunderground v.1.15,2013-05-25 18:04:00,
2013-05-25 14:10:00,43.2,41.0,30.03,North,355,12.0,12.0,92,0.05,,,0.33,Wunderground v.1.15,2013-05-25 18:10:00,
2013-05-25 14:15:00,43.1,40.7,30.02,NNE,17,12.0,23.0,91,0.05,,,0.33,Wunderground v.1.15,2013-05-25 18:15:00,
2013-05-25 14:21:00,43.1,40.9,30.02,NE,38,12.0,13.0,92,0.04,,,0.33,Wunderground v.1.15,2013-05-25 18:21:00,
2013-05-25 14:27:00,43.0,40.8,30.03,NW,311,10.0,23.0,92,0.00,,,0.33,Wunderground v.1.15,2013-05-25 18:27:00,
2013-05-25 14:33:00,43.1,40.9,30.03,NW,319,11.0,21.0,92,0.00,,,0.33,Wunderground v.1.15,2013-05-25 18:33:00,
2013-05-25 14:39:00,43.0,40.8,30.03,NNE,13,10.0,21.0,92,0.00,,,0.33,Wunderground v.1.15,2013-05-25 18:39:00,
2013-05-25 14:45:00,43.0,40.8,30.03,North,360,10.0,21.0,92,0.00,,,0.34,Wunderground v.1.15,2013-05-25 18:45:00,
2013-05-25 14:51:00,43.0,40.8,30.03,NNE,15,10.0,21.0,92,0.00,,,0.34,Wunderground v.1.15,2013-05-25 18:51:00,
2013-05-25 14:56:00,43.1,40.9,30.03,WNW,296,10.0,23.0,92,0.00,,,0.34,Wunderground v.1.15,2013-05-25 18:56:00,
2013-05-25 15:02:00,43.1,40.7,30.03,NNE,24,13.0,21.0,91,0.00,,,0.34,Wunderground v.1.15,2013-05-25 19:02:00,
2013-05-25 15:08:00,43.2,40.8,30.03,NW,324,13.0,21.0,91,0.00,,,0.34,Wunderground v.1.15,2013-05-25 19:08:00,
2013-05-25 15:14:00,43.2,40.8,30.03,North,355,13.0,22.0,91,0.00,,,0.35,Wunderground v.1.15,2013-05-25 19:14:00,
2013-05-25 15:19:00,43.3,40.8,30.03,NW,316,13.0,22.0,91,0.00,,,0.35,Wunderground v.1.15,2013-05-25 19:19:00,
2013-05-25 15:25:00,43.3,40.6,30.04,ENE,67,13.0,21.0,90,0.00,,,0.35,Wunderground v.1.15,2013-05-25 19:25:00,
2013-05-25 15:31:00,43.4,40.9,30.04,NW,306,11.0,21.0,91,0.00,,,0.35,Wunderground v.1.15,2013-05-25 19:31:00,
2013-05-25 15:37:00,43.3,40.6,30.04,NNE,14,12.0,21.0,90,0.00,,,0.35,Wunderground v.1.15,2013-05-25 19:37:00,
2013-05-25 15:43:00,43.1,40.4,30.05,NNW,336,14.0,23.0,90,0.00,,,0.35,Wunderground v.1.15,2013-05-25 19:43:00,
2013-05-25 15:49:00,43.0,40.6,30.05,North,5,13.0,23.0,91,0.00,,,0.36,Wunderground v.1.15,2013-05-25 19:49:00,
2013-05-25 15:55:00,43.0,40.6,30.05,North,355,11.0,21.0,91,0.09,,,0.37,Wunderground v.1.15,2013-05-25 19:55:00,
2013-05-25 16:00:00,42.9,40.5,30.05,North,360,12.0,12.0,91,0.07,,,0.38,Wunderground v.1.15,2013-05-25 20:00:00,
2013-05-25 16:06:00,42.9,40.5,30.06,North,5,11.0,24.0,91,0.07,,,0.38,Wunderground v.1.15,2013-05-25 20:06:00,
2013-05-25 16:12:00,42.8,40.4,30.06,NNE,30,11.0,21.0,91,0.07,,,0.39,Wunderground v.1.15,2013-05-25 20:12:00,
2013-05-25 16:18:00,42.7,40.3,30.06,NNW,346,13.0,21.0,91,0.08,,,0.40,Wunderground v.1.15,2013-05-25 20:18:00,
2013-05-25 16:23:00,42.7,40.3,30.05,NE,36,12.0,21.0,91,0.09,,,0.41,Wunderground v.1.15,2013-05-25 20:23:00,
2013-05-25 16:29:00,42.7,40.3,30.06,NNW,348,12.0,21.0,91,0.09,,,0.41,Wunderground v.1.15,2013-05-25 20:29:00,
2013-05-25 16:35:00,42.7,40.3,30.05,North,5,10.0,21.0,91,0.07,,,0.42,Wunderground v.1.15,2013-05-25 20:35:00,
2013-05-25 16:41:00,42.8,40.6,30.05,NW,311,9.0,21.0,92,0.06,,,0.43,Wunderground v.1.15,2013-05-25 20:41:00,
2013-05-25 16:47:00,42.8,40.4,30.04,NE,46,10.0,21.0,91,0.06,,,0.43,Wunderground v.1.15,2013-05-25 20:47:00,
2013-05-25 16:53:00,42.8,40.6,30.05,North,5,10.0,22.0,92,0.07,,,0.44,Wunderground v.1.15,2013-05-25 20:53:00,
2013-05-25 16:59:00,42.8,40.4,30.05,NW,325,12.0,24.0,91,0.07,,,0.45,Wunderground v.1.15,2013-05-25 20:59:00,
2013-05-25 17:04:00,42.7,40.3,30.05,NNE,22,12.0,21.0,91,0.07,,,0.45,Wunderground v.1.15,2013-05-25 21:04:00,
2013-05-25 17:10:00,42.7,40.3,30.05,NNW,340,11.0,11.0,91,0.07,,,0.46,Wunderground v.1.15,2013-05-25 21:10:00,
2013-05-25 17:16:00,42.8,40.4,30.05,North,355,12.0,21.0,91,0.06,,,0.46,Wunderground v.1.15,2013-05-25 21:16:00,
2013-05-25 17:22:00,42.8,40.4,30.05,North,351,11.0,21.0,91,0.06,,,0.47,Wunderground v.1.15,2013-05-25 21:22:00,
2013-05-25 17:27:00,42.8,40.4,30.05,NNE,23,11.0,21.0,91,0.06,,,0.47,Wunderground v.1.15,2013-05-25 21:27:00,
2013-05-25 17:33:00,42.8,40.4,30.05,NNW,342,11.0,21.0,91,0.05,,,0.48,Wunderground v.1.15,2013-05-25 21:33:00,
2013-05-25 17:39:00,42.8,40.4,30.05,NE,53,12.0,22.0,91,0.05,,,0.48,Wunderground v.1.15,2013-05-25 21:39:00,
2013-05-25 17:45:00,42.8,40.4,30.05,NNW,344,10.0,21.0,91,0.05,,,0.49,Wunderground v.1.15,2013-05-25 21:45:00,
2013-05-25 17:51:00,42.8,40.4,30.05,NNW,346,11.0,21.0,91,0.05,,,0.49,Wunderground v.1.15,2013-05-25 21:51:00,
2013-05-25 17:57:00,42.8,40.4,30.06,NNE,15,10.0,21.0,91,0.05,,,0.50,Wunderground v.1.15,2013-05-25 21:57:00,
2013-05-25 18:03:00,42.7,40.3,30.05,NW,326,11.0,21.0,91,0.08,,,0.51,Wunderground v.1.15,2013-05-25 22:03:00,
2013-05-25 18:08:00,42.7,40.3,30.05,NNW,348,12.0,21.0,91,0.08,,,0.51,Wunderground v.1.15,2013-05-25 22:08:00,
2013-05-25 18:14:00,42.7,40.3,30.05,NNE,18,10.0,21.0,91,0.07,,,0.52,Wunderground v.1.15,2013-05-25 22:14:00,
2013-05-25 18:20:00,42.8,40.4,30.05,NNW,344,9.0,21.0,91,0.05,,,0.52,Wunderground v.1.15,2013-05-25 22:20:00,
2013-05-25 18:26:00,42.9,40.5,30.05,NW,317,10.0,21.0,91,0.04,,,0.52,Wunderground v.1.15,2013-05-25 22:26:00,
2013-05-25 18:31:00,43.0,40.6,30.05,NNW,328,10.0,21.0,91,0.00,,,0.53,Wunderground v.1.15,2013-05-25 22:31:00,
2013-05-25 18:37:00,43.1,40.7,30.05,NNE,13,10.0,21.0,91,0.00,,,0.53,Wunderground v.1.15,2013-05-25 22:37:00,
2013-05-25 18:43:00,43.1,40.7,30.05,North,355,11.0,21.0,91,0.00,,,0.53,Wunderground v.1.15,2013-05-25 22:43:00,
2013-05-25 18:49:00,43.2,41.0,30.05,NNW,338,9.0,21.0,92,0.00,,,0.53,Wunderground v.1.15,2013-05-25 22:49:00,
2013-05-25 18:55:00,43.2,41.0,30.05,NE,35,8.0,21.0,92,0.00,,,0.53,Wunderground v.1.15,2013-05-25 22:55:00,
2013-05-25 19:01:00,43.2,40.8,30.05,NNW,333,9.0,22.0,91,0.00,,,0.53,Wunderground v.1.15,2013-05-25 23:01:00,
2013-05-25 19:07:00,43.3,40.8,30.05,North,5,11.0,22.0,91,0.00,,,0.53,Wunderground v.1.15,2013-05-25 23:07:00,
2013-05-25 19:12:00,43.3,40.8,30.05,North,11,10.0,21.0,91,0.00,,,0.53,Wunderground v.1.15,2013-05-25 23:12:00,
2013-05-25 19:18:00,43.2,40.8,30.05,North,5,9.0,21.0,91,0.00,,,0.54,Wunderground v.1.15,2013-05-25 23:18:00,
2013-05-25 19:24:00,43.2,40.8,30.06,NNW,345,8.0,21.0,91,0.00,,,0.54,Wunderground v.1.15,2013-05-25 23:24:00,
2013-05-25 19:30:00,43.2,40.8,30.06,North,360,7.0,21.0,91,0.00,,,0.54,Wunderground v.1.15,2013-05-25 23:30:00,
2013-05-25 19:35:00,43.3,40.8,30.06,North,5,8.0,21.0,91,0.00,,,0.54,Wunderground v.1.15,2013-05-25 23:35:00,
2013-05-25 19:41:00,43.3,40.8,30.06,West,268,9.0,21.0,91,0.00,,,0.54,Wunderground v.1.15,2013-05-25 23:41:00,
2013-05-25 19:47:00,43.2,40.8,30.06,North,351,9.0,21.0,91,0.00,,,0.54,Wunderground v.1.15,2013-05-25 23:47:00,
2013-05-25 19:53:00,43.1,40.7,30.06,North,355,7.0,21.0,91,0.00,,,0.55,Wunderground v.1.15,2013-05-25 23:53:00,
2013-05-25 19:59:00,43.1,40.7,30.06,NNE,12,8.0,21.0,91,0.00,,,0.55,Wunderground v.1.15,2013-05-25 23:59:00,
2013-05-25 20:05:00,43.1,40.7,30.06,NNW,341,9.0,21.0,91,0.00,,,0.55,Wunderground v.1.15,2013-05-26 00:05:00,
2013-05-25 20:11:00,43.0,40.6,30.06,North,350,8.0,21.0,91,0.00,,,0.55,Wunderground v.1.15,2013-05-26 00:11:00,
2013-05-25 20:17:00,42.9,40.7,30.06,North,5,7.0,21.0,92,0.00,,,0.56,Wunderground v.1.15,2013-05-26 00:17:00,
2013-05-25 20:22:00,42.9,40.7,30.06,North,10,8.0,21.0,92,0.00,,,0.56,Wunderground v.1.15,2013-05-26 00:22:00,
2013-05-25 20:28:00,42.8,40.6,30.05,NNW,340,8.0,21.0,92,0.00,,,0.56,Wunderground v.1.15,2013-05-26 00:28:00,
2013-05-25 20:34:00,42.7,40.5,30.05,WNW,288,8.0,21.0,92,0.00,,,0.56,Wunderground v.1.15,2013-05-26 00:34:00,
2013-05-25 20:40:00,42.5,40.3,30.05,North,355,9.0,21.0,92,0.00,,,0.57,Wunderground v.1.15,2013-05-26 00:40:00,
2013-05-25 20:46:00,42.5,40.3,30.05,NW,304,7.0,21.0,92,0.00,,,0.57,Wunderground v.1.15,2013-05-26 00:46:00,
2013-05-25 20:52:00,42.4,40.2,30.05,North,5,6.0,21.0,92,0.00,,,0.57,Wunderground v.1.15,2013-05-26 00:52:00,
2013-05-25 20:58:00,42.4,40.2,30.05,NW,321,6.0,21.0,92,0.00,,,0.58,Wunderground v.1.15,2013-05-26 00:58:00,
2013-05-25 21:03:00,42.3,40.1,30.06,NNW,336,7.0,21.0,92,0.00,,,0.58,Wunderground v.1.15,2013-05-26 01:03:00,
2013-05-25 21:09:00,42.3,40.1,30.06,NNE,13,7.0,21.0,92,0.00,,,0.58,Wunderground v.1.15,2013-05-26 01:09:00,
2013-05-25 21:15:00,42.2,40.0,30.06,NW,308,8.0,21.0,92,0.00,,,0.58,Wunderground v.1.15,2013-05-26 01:15:00,
2013-05-25 21:21:00,42.2,40.0,30.06,NNW,342,8.0,12.0,92,0.00,,,0.58,Wunderground v.1.15,2013-05-26 01:21:00,
2013-05-25 21:26:00,42.2,40.0,30.06,North,5,8.0,21.0,92,0.00,,,0.58,Wunderground v.1.15,2013-05-26 01:26:00,
2013-05-25 21:32:00,42.1,39.9,30.06,NNW,338,7.0,21.0,92,0.00,,,0.58,Wunderground v.1.15,2013-05-26 01:32:00,
2013-05-25 21:38:00,42.0,39.8,30.06,WNW,292,7.0,21.0,92,0.00,,,0.58,Wunderground v.1.15,2013-05-26 01:38:00,
2013-05-25 21:44:00,42.0,39.8,30.06,NNW,327,7.0,21.0,92,0.00,,,0.58,Wunderground v.1.15,2013-05-26 01:44:00,
2013-05-25 21:50:00,41.9,39.7,30.06,NW,324,8.0,8.0,92,0.00,,,0.58,Wunderground v.1.15,2013-05-26 01:50:00,
2013-05-25 21:56:00,41.8,39.6,30.06,NNW,329,7.0,21.0,92,0.00,,,0.59,Wunderground v.1.15,2013-05-26 01:56:00,
2013-05-25 22:02:00,41.8,39.4,30.06,North,11,8.0,21.0,91,0.00,,,0.59,Wunderground v.1.15,2013-05-26 02:02:00,
2013-05-25 22:07:00,41.7,39.5,30.05,North,355,8.0,21.0,92,0.00,,,0.59,Wunderground v.1.15,2013-05-26 02:07:00,
2013-05-25 22:13:00,41.7,39.3,30.05,NNW,331,8.0,21.0,91,0.00,,,0.59,Wunderground v.1.15,2013-05-26 02:13:00,
2013-05-25 22:19:00,41.7,39.3,30.05,NNW,335,8.0,21.0,91,0.00,,,0.59,Wunderground v.1.15,2013-05-26 02:19:00,
2013-05-25 22:25:00,41.7,39.3,30.05,North,350,8.0,21.0,91,0.00,,,0.59,Wunderground v.1.15,2013-05-26 02:25:00,
2013-05-25 22:30:00,41.7,39.3,30.05,NW,310,8.0,21.0,91,0.00,,,0.59,Wunderground v.1.15,2013-05-26 02:30:00,
2013-05-25 22:36:00,41.6,39.2,30.04,NW,323,7.0,21.0,91,0.00,,,0.59,Wunderground v.1.15,2013-05-26 02:36:00,
2013-05-25 22:42:00,41.6,39.2,30.05,NNW,344,8.0,21.0,91,0.00,,,0.59,Wunderground v.1.15,2013-05-26 02:42:00,
2013-05-25 22:48:00,41.6,39.2,30.05,WNW,300,9.0,21.0,91,0.00,,,0.59,Wunderground v.1.15,2013-05-26 02:48:00,
2013-05-25 22:54:00,41.6,39.2,30.04,NNW,340,8.0,21.0,91,0.00,,,0.60,Wunderground v.1.15,2013-05-26 02:54:00,
2013-05-25 23:00:00,41.6,39.2,30.04,NW,320,8.0,8.0,91,0.00,,,0.60,Wunderground v.1.15,2013-05-26 03:00:00,
2013-05-25 23:06:00,41.6,39.2,30.04,NW,306,9.0,21.0,91,0.00,,,0.60,Wunderground v.1.15,2013-05-26 03:06:00,
2013-05-25 23:11:00,41.6,39.2,30.04,North,355,8.0,21.0,91,0.00,,,0.60,Wunderground v.1.15,2013-05-26 03:11:00,
2013-05-25 23:17:00,41.8,39.1,30.04,NNW,327,9.0,21.0,90,0.00,,,0.60,Wunderground v.1.15,2013-05-26 03:17:00,
2013-05-25 23:23:00,41.7,39.0,30.05,NNW,332,8.0,21.0,90,0.00,,,0.60,Wunderground v.1.15,2013-05-26 03:23:00,
2013-05-25 23:29:00,41.8,39.1,30.04,NW,318,9.0,22.0,90,0.00,,,0.60,Wunderground v.1.15,2013-05-26 03:29:00,
2013-05-25 23:34:00,41.8,39.1,30.04,North,5,10.0,21.0,90,0.00,,,0.60,Wunderground v.1.15,2013-05-26 03:34:00,
2013-05-25 23:40:00,41.8,38.8,30.04,NW,315,9.0,9.0,89,0.00,,,0.60,Wunderground v.1.15,2013-05-26 03:40:00,
2013-05-25 23:46:00,41.9,39.2,30.03,NW,317,8.0,21.0,90,0.00,,,0.60,Wunderground v.1.15,2013-05-26 03:46:00,
2013-05-25 23:52:00,41.9,38.9,30.03,NNE,19,9.0,21.0,89,0.00,,,0.60,Wunderground v.1.15,2013-05-26 03:52:00,
2013-05-25 23:57:00,41.9,38.9,30.03,North,350,10.0,21.0,89,0.00,,,0.60,Wunderground v.1.15,2013-05-26 03:57:00,